Location: Corsier
(46.2637°N, 6.2238°E)
Time: 07:40:18
(UTC+00:00)

CBERS-1 - Pass Details

Date: 07 June 2020
Orbit: 770 x 776 km, 98.6° (Epoch: 04 July)

Event Time Altitude Azimuth Distance (km) Brightness Sun altitude
Rises 02:14:52 0° 11° (N) 3,261 8.5 -11.9°
Reaches altitude 10° 02:17:12 10° 8° (N) 2,330 7.5 -11.7°
Maximum altitude 02:22:16 62° 289° (WNW) 870 4.2 -11.2°
Enters shadow 02:26:39 14° 211° (SSW) 2,069 5.6 -10.7°
